Location: Glass Lake
(42.6301°N, 73.5309°W)
Time: 04:46:59
(UTC+00:00)

ACS3 Solar Sail - Pass Details

Date: 15 October 2024
Orbit: 961 x 1023 km, 97.5° (Epoch: 02 November)

Event Time Altitude Azimuth Distance (km) Brightness Sun altitude
Exits shadow 00:43:08 67° 153° (SSE) 1,120 1.8 -28.3°
Maximum altitude 00:44:07 85° 76° (ENE) 1,047 1.8 -28.5°
Drops below altitude 10° 00:50:35 10° 349° (N) 2,849 4.5 -29.6°
Sets 00:53:06 0° 349° (N) 3,803 5.2 -30.1°
